Tracking 26922 objects as of 31-Jan-2023
HD Live streaming from Space Station
objects crossing your sky now

CZ-6A DEB

Track CZ-6A DEB now!
10-day predictions


NORAD ID: 54347
Int'l Code: 2022-151CS
Perigee: 729.8 km
Apogee: 886.6 km
Inclination: 98.7 °
Period: 100.9 minutes
Semi major axis: 7179 km
RCS: Unknown
Launch date: November 11, 2022
Source: People's Republic of China (PRC)
Launch site: Taiyaun Space Center, China (TSC)

Note: This is SATELLITE DEBRIS
Your satellite tracking list
Your tracking list is empty




NASA's NSSDC Master Catalog

Two Line Element Set (TLE):
1 54347U 22151CS  23031.48727153  .00000464  00000-0  19478-3 0  9996
2 54347  98.7132  40.8949 0109230  87.9334 273.4350 14.27215677 10926
Source of the keplerian elements: AFSPC